Regional Weather Roundup
Issued by NWS Kansas City/Pleasant Hill, MO

Home | Current Version | Previous Version | Graphics & Text | Print | Product List | Glossary Off
Versions: 1 2 3 4 5 6 7 8 9 10 11 12 13 14 15 16 17 18 19 20 21 22 23 24 25 26 27 28 29 30 31 32 33 34 35 36 37 38 39 40 41 42 43 44 45 46 47 48 49 50

000
ASUS43 KEAX 191510
RWREAX

WEATHER ROUNDUP FOR EASTERN KANSAS AND NORTHWEST MISSOURI
NATIONAL WEATHER SERVICE KANSAS CITY/PLEASANT HILL MO
1000 AM CDT THU APR 19 2018

KSZ040-057-103>105-MOZ028-029-037-043-191600-
...KANSAS CITY METROPOLITAN AREA...

CITY           SKY/WX    TMP DP  RH WIND       PRES   REMARKS
K.C. INTL      SUNNY     43  30  60 N12       30.43R
K.C. DOWNTOWN  SUNNY     44  29  55 N10       30.44R
LEES SUMMIT    SUNNY     42  30  62 N13       30.43R
OLATHE - IXD   MOSUNNY   41  30  65 VRB5      30.45R
OLATHE - OJC   MOSUNNY   41  29  62 N7        30.44R
LAWRENCE       SUNNY     44  30  57 NE7       30.46R

$$

MOZ001>008-011>017-020>025-030>033-038>040-044>046-053-054-191600-
...NORTHERN AND CENTRAL MISSOURI...

CITY           SKY/WX    TMP DP  RH WIND       PRES   REMARKS
ST. JOSEPH     SUNNY     44  32  62 N12       30.46R
MOSBY          SUNNY     41  30  65 N10       30.44R WCI  35
WARRENSBURG    SUNNY     41  30  65 N8        30.42S
WHITEMAN AFB   MOSUNNY   41  29  62 N9        30.37R
CLINTON        SUNNY     41  28  60 NE10      30.42S WCI  35
SEDALIA        MOSUNNY   43  31  62 VRB7      30.43R
WARSAW         NOT AVBL
CHILLICOTHE      N/A     43  31  62 N8        30.44R
KIRKSVILLE     SUNNY     41  32  70 N3        30.41R

$$

MOZ041-047>049-056>058-063>065-088>090-097-191600-
...EASTERN AND SOUTHERN MISSOURI...

CITY           SKY/WX    TMP DP  RH WIND       PRES   REMARKS
ST. LOUIS INTL CLOUDY    40  31  70 N13       30.36R WCI  32
SPIRIT OF STL  CLOUDY    41  30  65 N12       30.37R WCI  34
COLUMBIA       MOSUNNY   41  29  62 N8        30.40R
JEFFERSON CITY CLOUDY    41  28  60 N7        30.41R
ROLLA          CLOUDY    38  28  67 N9        30.38R WCI  31
OSAGE BEACH    PTSUNNY   42  28  57 N8        30.40R
SPRINGFIELD    CLOUDY    43  28  55 N16       30.37R
BRANSON        PTSUNNY   41  27  56 N13       30.36R WCI  34
JOPLIN         SUNNY     44  31  60 N16G23    30.41R
WEST PLAINS    MOSUNNY   44  26  49 N10G24    30.34R

$$

IAZ060-094-KSZ022-034>040-054-083-096-NEZ052-066-093-191600-
...KANSAS...SOUTHEAST NEBRASKA AND IOWA...

CITY           SKY/WX    TMP DP  RH WIND       PRES   REMARKS
TOPEKA         SUNNY     44  31  60 NE8       30.46R
MANHATTAN      SUNNY     43  29  57 NE10      30.47R
EMPORIA        MOSUNNY   42  28  57 NE14      30.46R WCI  35
CHANUTE        MOSUNNY   45  31  58 N16       30.44R
WICHITA        MOSUNNY   46  31  55 NE16      30.45R
OMAHA          SUNNY     42  32  67 N3        30.46R
LINCOLN        SUNNY     43  31  62 CALM      30.48R
FALLS CITY     SUNNY     44  29  55 N13       30.45S
LAMONI         SUNNY     41  30  65 N9        30.42R
DES MOINES     MOSUNNY   42  28  57 VRB6      30.45R

$$




USA.gov is the U.S. government's official web portal to all federal, state and local government web resources and services.